Location: Miles
(41.4492°N, 81.6087°W)
Time: 21:38:04
(UTC+00:00)

Courier 1B Rocket - Pass Details

Date: 18 September 2024
Orbit: 920 x 1201 km, 28.2° (Epoch: 09 October)

Event Time Altitude Azimuth Distance (km) Brightness Sun altitude
Rises 18:22:03 0° 203° (SSW) 3,551 8.6 47.7°
Reaches altitude 10° 18:27:21 10° 165° (SSE) 2,650 8.0 47.2°
Maximum altitude 18:28:33 11° 155° (SSE) 2,624 7.8 47.2°
Drops below altitude 10° 18:29:45 10° 144° (SE) 2,676 7.7 47.1°
Sets 18:35:14 0° 107° (ESE) 3,700 8.0 46.6°
